Regional Weather Roundup
Issued by NWS Sioux Falls, SD

Home | Current Version | Previous Version | Text Only | Print | Product List | Glossary On
Versions: 1 2 3 4 5 6 7 8 9 10 11 12 13 14 15 16 17 18 19 20 21 22 23 24 25 26 27 28 29 30 31 32 33 34 35 36 37 38 39 40 41 42 43 44 45 46 47 48 49 50
000
ASUS43 KFSD 030710
RWRFSD

WEATHER ROUNDUP FOR SE SOUTH DAKOTA/SW MINNESOTA/NW IOWA
NATIONAL WEATHER SERVICE SIOUX FALLS SD
100 AM CST TUE MAR 03 2015

NOTE: "FAIR" INDICATES FEW OR NO CLOUDS BELOW 12,000 FEET WITH NO
SIGNIFICANT WEATHER AND OR OBSTRUCTIONS TO VISIBILITY.


SDZ038>040-050-052>070-030800-
SOUTHEAST SOUTH DAKOTA

CITY           SKY/WX    TMP DP  RH WIND       PRES   REMARKS
CHAMBERLAIN    MOCLDY    32  18  56 S8        29.71S WCI  24
HURON          CLOUDY    31  20  63 S12       29.74F WCI  22
MADISON        FAIR      25  25 100 S13       29.77F WCI  13
MITCHELL       CLOUDY    30  19  63 S12       29.76F WCI  20
SIOUX FALLS    CLOUDY    27  19  72 SE14      29.80F WCI  16
WINNER         CLOUDY    33  17  51 S9        29.68F WCI  25
YANKTON        CLOUDY    28  18  64 SE10      29.80F WCI  19
$$

MNZ071-072-080-081-089-090-097-098-030800-
SOUTHWEST MINNESOTA

CITY           SKY/WX    TMP DP  RH WIND       PRES   REMARKS
FAIRMONT       CLOUDY    23  16  74 SE13      29.90F WCI  11
JACKSON        CLOUDY    25  19  80 SE12      29.88F WCI  14
LUVERNE        CLOUDY    28  21  74 S13G20    29.83F WCI  18
MARSHALL       CLOUDY    25  18  74 S12       29.86F WCI  14
MONTEVIDEO     LGT SNOW  25  21  86 S13       29.86F WCI  13
PIPESTONE      CLOUDY    25  19  80 S16       29.80F WCI  12
REDWOOD FALLS  CLOUDY    23  18  81 SE16      29.88F WCI  10
TRACY          CLOUDY    26  21  79 S14       29.84F WCI  15
WINDOM         CLOUDY    23  19  86 SE12      29.86F WCI  12
WORTHINGTON    CLOUDY    25  18  74 S14       29.85F WCI  13
$$

IAZ001>003-012>014-020>022-031-032-NEZ013-014-SDZ071-030800-
NORTHWEST IOWA

CITY           SKY/WX    TMP DP  RH WIND       PRES   REMARKS
CHEROKEE       CLOUDY    26  22  83 SE8       29.87F WCI  18
DENISON        CLOUDY    28  23  80 SE10      29.84F WCI  19
ESTHERVILLE    CLOUDY    23  19  85 SE14      29.89F WCI  11
LE MARS        CLOUDY    27  21  80 SE6       29.84F WCI  20
ORANGE CITY    CLOUDY    27  21  80 CALM      29.84F
SHELDON        CLOUDY    25  21  86 SE18      29.83F WCI  11
SIOUX CITY     CLOUDY    30  20  66 SE10      29.83F WCI  21
SPENCER        CLOUDY    26  19  74 SE12      29.88F WCI  16
STORM LAKE     CLOUDY    25  21  86 SE15      29.87F WCI  12
$$

ABBREVIATIONS USED IN REMARKS
   TC - TEMPERATURE IN CELSIUS
  WCI - WIND CHILL INDEX
   HX - HEAT INDEX
  VSB - VISIBILITY



USA.gov is the U.S. government's official web portal to all federal, state and local government web resources and services.